CAPE
2 486 1418 1534 1301 796 633 452 452 433 688 809 848 752 834 1040 1230 1265 1194 1190 1318 1452 1429 1230 786 577 450 335 313 442 591 952 1240 1259 1271 1319 1575 1408 1346 938 884 917 946
80 725 1139 1317 1119 944 773 611 646 568 611 943 1076 985 859 845 970 1131 1224 1304 1223 1313 1426 1324 866 590 368 223 125 184 279 511 1002 1269 979 977 1139 1380 1227 1163 966 1144 935
111 672 939 915 1009 1205 1057 905 867 895 723 964 1179 1286 1276 1305 1357 1439 1546 1681 1627 1482 1704 1671 1175 807 430 278 150 93 32 28 157 506 867 1006 870 1125 968 1032 872 1072 1154
115 436 512 572 745 1084 1216 1240 1208 1214 964 1006 1276 1405 1451 1462 1506 1574 1859 2168 1944 1675 1869 1898 1867 1256 543 337 262 238 163 44 9 0 40 374 1029 1119 838 1027 656 989 1269
124 369 554 571 725 1087 1298 1561 1595 1347 1171 1077 1311 1543 1637 1621 1572 1680 1969 1886 1823 1880 1890 1951 2047 1372 733 478 375 343 310 214 119 0 16 94 249 1299 1083 918 743 736 814
163 375 596 696 938 1348 1573 1726 1734 1427 1247 1110 1433 1709 1820 1747 1733 1715 1791 1737 1703 1747 1739 1707 1740 1621 1367 1155 1029 968 817 630 401 126 36 113 361 951 1228 954 980 879 774
155 353 599 720 994 1330 1508 1601 1592 1485 1288 1232 1496 1809 1952 1844 1708 1605 1679 1618 1528 1496 1465 1314 1154 1107 1089 1047 1033 973 917 936 906 594 421 307 344 1043 1216 745 973 974 925
125 310 586 812 981 1080 1138 1230 1326 1371 1369 1522 1852 1962 1791 1565 1470 1406 1346 1277 1162 1055 950 868 800 717 639 487 238 127 206 553 740 763 737 630 602 871 1351 848 720 704 889
253 334 485 751 956 1016 1064 1129 1230 1388 1563 1675 1745 1667 1485 1314 1208 1113 1064 1014 988 892 679 450 289 70 28 15 92 269 182 395 320 416 751 825 845 878 1214 1081 820 694 695
298 341 464 524 685 836 1058 1171 1287 1388 1459 1471 1450 1345 1193 930 808 720 729 696 434 158 0 0 0 0 0 0 135 311 358 165 188 306 507 629 827 1008 1159 1045 880 692 574
290 388 402 536 511 655 865 1033 1096 1144 1141 1223 1188 1029 794 577 455 255 136 4 0 0 0 0 0 0 0 0 0 0 0 0 2 116 90 168 818 1107 844 764 886 818 712
322 448 536 424 616 707 740 801 787 916 956 967 957 804 592 332 60 0 0 0 0 0 0 0 0 0 0 0 0 0 0 0 0 20 38 44 357 742 872 911 971 842 730
505 293 348 393 521 597 488 525 580 642 711 787 694 592 377 1 0 0 0 0 0 0 0 0 0 0 0 0 0 0 0 0 0 0 0 77 328 612 611 603 694 720 743
751 603 523 377 347 292 363 449 460 454 413 482 659 571 263 0 0 0 0 0 0 0 0 0 0 0 0 0 0 0 0 0 0 0 0 23 89 288 340 527 643 506 442
901 613 484 282 275 332 417 312 274 169 83 91 119 37 0 0 0 0 0 0 0 0 0 0 0 0 0 0 0 0 0 0 0 0 0 0 0 6 29 44 133 256 97
1054 738 462 406 305 214 219 172 89 0 0 0 0 0 0 0 0 0 0 0 0 0 0 0 0 0 0 0 0 0 0 0 0 0 0 0 1 1 2 9 16 25 9
1192 838 540 333 167 148 29 1 0 0 0 0 0 0 0 0 0 0 0 0 0 0 0 0 0 0 0 0 0 0 0 0 0 0 0 0 0 0 1 1 1 1 1
1356 1236 784 547 178 20 0 0 0 0 0 0 0 0 0 0 0 0 0 0 0 0 0 0 0 0 0 0 0 0 0 0 0 0 0 0 0 0 0 0 1 1 0
1504 1357 1000 521 97 0 0 0 0 0 0 0 0 0 0 0 0 0 0 0 0 0 0 0 0 0 0 0 0 0 0 0 0 0 0 0 0 0 0 0 0 0 0
1417 1142 581 146 14 0 0 0 0 0 0 0 0 0 0 0 0 0 0 0 0 0 0 0 0 0 0 0 0 0 0 0 0 0 0 0 0 0 0 0 0 0 0
1353 1031 293 82 0 0 0 0 0 0 0 0 0 0 0 0 0 0 0 0 0 0 0 0 0 0 0 0 0 0 0 0 0 0 0 0 0 0 0 0 0 0 0
1368 653 67 18 0 0 0 0 0 0 0 0 0 0 0 0 0 0 0 0 0 0 0 0 0 0 0 0 0 0 0 0 0 0 0 0 0 0 0 0 0 0 0
854 379 5 0 0 0 0 0 0 0 0 0 0 0 0 0 0 0 0 0 0 0 0 0 0 0 0 0 0 0 0 0 0 0 0 0 0 0 0 0 0 0 0
301 1 0 0 0 0 0 0 0 0 0 0 0 0 0 0 0 0 0 0 0 0 0 0 0 0 0 0 0 0 0 0 0 0 0 0 0 0 0 0 0 0 0
2 3 1 0 0 0 0 0 0 0 0 0 0 0 0 0 0 0 0 0 0 0 0 0 0 0 0 0 0 0 0 0 0 0 0 0 0 0 0 0 0 0 0
1 2 1 0 0 0 0 0 0 0 0 0 0 0 0 0 0 0 0 0 0 0 0 0 0 0 0 0 0 0 0 0 0 0 0 0 0 0 0 0 0 0 0
CIN
-420 -612 -366 -313 -307 -356 -372 -388 -371 -366 -330 -298 -281 -273 -242 -189 -140 -123 -122 -108 -81 -57 -58 -59 -96 -113 -136 -173 -169 -124 -83 -35 -9 -3 -3 -2 0 -3 -10 -27 -34 -28 -13
-818 -550 -420 -346 -349 -359 -362 -377 -346 -348 -321 -260 -236 -225 -245 -237 -186 -141 -117 -93 -93 -83 -69 -68 -106 -124 -159 -208 -220 -190 -150 -80 -28 -12 -15 -9 -5 -4 -9 -10 -20 -9 -16
-730 -551 -439 -410 -372 -311 -325 -326 -316 -299 -317 -259 -227 -193 -180 -154 -131 -93 -71 -56 -58 -59 -32 -31 -57 -85 -129 -165 -183 -203 -250 -256 -165 -60 -26 -18 -20 -8 -11 -10 -26 -15 -5
-720 -590 -541 -480 -400 -317 -287 -277 -272 -263 -281 -254 -207 -172 -142 -130 -106 -79 -41 -10 -19 -32 -8 -3 -3 -41 -110 -131 -145 -144 -174 -232 -108 0 -195 -82 -27 -15 -27 -20 -29 -23 -7
-670 -582 -493 -469 -399 -309 -267 -225 -214 -242 -256 -252 -200 -158 -132 -114 -98 -63 -20 -22 -24 -16 -2 -0 -1 -29 -85 -105 -124 -123 -138 -176 -195 0 -226 -167 -113 -25 -21 -27 -34 -40 -44
-653 -571 -489 -420 -343 -255 -224 -195 -184 -226 -242 -248 -186 -130 -104 -110 -80 -60 -29 -44 -45 -25 -19 -10 -4 -10 -28 -44 -54 -47 -48 -81 -135 -192 -220 -175 -101 -46 -17 -27 -26 -33 -47
-671 -590 -472 -404 -322 -252 -224 -208 -201 -206 -229 -222 -166 -101 -68 -84 -96 -101 -44 -62 -84 -62 -43 -46 -51 -48 -39 -49 -58 -63 -63 -57 -56 -80 -113 -123 -102 -36 -14 -27 -20 -27 -33
-649 -582 -463 -385 -323 -270 -260 -245 -221 -200 -196 -170 -104 -59 -82 -113 -122 -138 -112 -100 -125 -125 -116 -109 -114 -137 -153 -183 -233 -242 -221 -125 -86 -76 -70 -78 -84 -50 -17 -24 -20 -15 -16
-580 -538 -493 -423 -342 -300 -272 -244 -221 -187 -154 -150 -123 -99 -103 -134 -133 -149 -150 -147 -148 -148 -175 -206 -242 -327 -352 -376 -287 -190 -224 -163 -171 -130 -77 -77 -59 -45 -22 -11 -15 -17 -19
-538 -522 -488 -483 -423 -347 -272 -240 -212 -192 -160 -157 -155 -139 -134 -186 -200 -213 -196 -192 -234 -323 0 0 0 0 0 0 -274 -199 -175 -231 -198 -138 -115 -100 -71 -31 -18 -12 -17 -19 -23
-533 -496 -509 -468 -454 -397 -310 -237 -214 -197 -196 -168 -171 -192 -213 -244 -273 -341 -347 -341 0 0 0 0 0 0 0 0 0 0 0 0 -266 -255 -298 -264 -48 -22 -22 -23 -18 -14 -19
-523 -463 -427 -462 -389 -355 -329 -278 -254 -209 -203 -186 -203 -229 -242 -306 -416 -0 0 0 0 0 0 0 0 0 0 0 0 0 0 0 0 -198 -330 -314 -128 -34 -30 -27 -13 -12 -13
-446 -474 -451 -431 -388 -383 -386 -336 -296 -263 -225 -195 -220 -250 -290 -40 0 0 0 0 0 0 0 0 0 0 0 0 0 0 0 0 0 0 0 -266 -107 -31 -45 -47 -32 -31 -27
-390 -394 -403 -436 -442 -480 -440 -374 -317 -286 -271 -237 -174 -203 -282 0 0 0 0 0 0 0 0 0 0 0 0 0 0 0 0 0 0 0 0 -249 -207 -85 -48 -9 -1 -14 -12
-326 -391 -407 -468 -480 -467 -421 -406 -364 -372 -381 -362 -316 -222 0 0 0 0 0 0 0 0 0 0 0 0 0 0 0 0 0 0 0 0 0 0 0 -182 -246 -212 -136 -52 -157
-268 -353 -395 -381 -385 -426 -437 -437 -436 0 0 0 0 0 0 0 0 0 0 0 0 0 0 0 0 0 0 0 0 0 0 0 0 0 0 0 0 -0 0 -1 -93 -49 -0
-249 -320 -397 -407 -412 -378 -457 -37 0 0 0 0 0 0 0 0 0 0 0 0 0 0 0 0 0 0 0 0 0 0 0 0 0 0 0 0 0 0 0 0 0 0 0
-213 -248 -305 -324 -394 -497 0 0 0 0 0 0 0 0 0 0 0 0 0 0 0 0 0 0 0 0 0 0 0 0 0 0 0 0 0 0 0 0 0 0 0 0 0
-204 -225 -272 -335 -438 0 0 0 0 0 0 0 0 0 0 0 0 0 0 0 0 0 0 0 0 0 0 0 0 0 0 0 0 0 0 0 0 0 0 0 0 0 0
-178 -178 -271 -386 -499 0 0 0 0 0 0 0 0 0 0 0 0 0 0 0 0 0 0 0 0 0 0 0 0 0 0 0 0 0 0 0 0 0 0 0 0 0 0
-197 -203 -346 -432 0 0 0 0 0 0 0 0 0 0 0 0 0 0 0 0 0 0 0 0 0 0 0 0 0 0 0 0 0 0 0 0 0 0 0 0 0 0 0
-218 -339 -452 -512 0 0 0 0 0 0 0 0 0 0 0 0 0 0 0 0 0 0 0 0 0 0 0 0 0 0 0 0 0 0 0 0 0 0 0 0 0 0 0
-294 -411 -263 0 0 0 0 0 0 0 0 0 0 0 0 0 0 0 0 0 0 0 0 0 0 0 0 0 0 0 0 0 0 0 0 0 0 0 0 0 0 0 0
-420 0 0 0 0 0 0 0 0 0 0 0 0 0 0 0 0 0 0 0 0 0 0 0 0 0 0 0 0 0 0 0 0 0 0 0 0 0 0 0 0 0 0
0 0 0 0 0 0 0 0 0 0 0 0 0 0 0 0 0 0 0 0 0 0 0 0 0 0 0 0 0 0 0 0 0 0 0 0 0 0 0 0 0 0 0
0 0 0 0 0 0 0 0 0 0 0 0 0 0 0 0 0 0 0 0 0 0 0 0 0 0 0 0 0 0 0 0 0 0 0 0 0 0 0 0 0 0 0
Wind_Speed
10 12 13 14 14 16 16 17 17 18 18 18 18 19 19 19 18 19 18 17 17 17 17 17 18 18 19 19 19 19 20 20 19 19 20 20 20 19 19 19 20 20 20
13 12 13 12 14 14 15 15 16 16 17 16 16 16 17 16 16 17 17 16 16 16 16 16 17 17 18 18 19 19 20 20 20 21 21 21 20 19 19 18 18 18 19
14 12 11 11 12 13 13 14 13 14 14 13 14 13 15 13 15 15 15 16 15 15 16 16 17 17 18 18 18 19 19 20 20 21 21 21 20 18 17 16 17 17 17
13 11 11 11 11 11 12 12 11 12 12 12 11 12 11 12 13 14 14 15 15 15 15 15 16 16 16 16 16 17 18 19 20 20 20 20 17 16 17 17 17 16 16
12 9 9 9 9 10 11 11 10 10 11 10 9 10 9 11 11 12 13 13 14 14 14 14 15 15 16 16 15 17 18 19 19 19 19 19 17 13 14 15 14 15 15
9 8 8 8 9 10 10 10 9 10 10 9 8 8 7 9 10 11 12 13 13 13 14 14 15 16 17 17 18 19 19 20 20 19 19 21 21 11 12 12 12 12 12
10 8 8 9 8 9 9 9 9 9 9 8 7 7 7 8 9 10 11 12 13 14 15 15 16 17 18 19 20 21 21 21 20 21 20 19 19 17 10 10 10 10 10
10 8 8 7 7 7 8 8 8 7 7 7 6 6 6 7 8 9 11 12 13 14 15 16 17 18 19 20 21 22 22 22 21 19 18 16 19 20 7 8 8 8 8
8 9 8 7 7 8 7 7 6 6 6 6 5 5 5 7 8 10 11 13 14 15 15 16 17 18 19 20 22 22 18 19 20 19 20 19 19 17 12 6 6 6 6
6 6 7 7 7 7 5 6 5 5 4 4 4 4 5 6 8 11 12 14 14 15 16 16 16 17 18 20 21 20 18 18 19 20 19 19 19 18 14 8 7 5 5
5 5 5 6 8 7 5 4 4 4 3 3 3 3 4 7 8 10 11 12 12 13 15 15 16 18 18 19 20 20 19 19 20 19 20 21 20 19 17 12 11 11 7
7 4 2 4 6 5 3 3 2 1 1 2 1 2 4 6 9 10 11 12 13 14 15 16 17 18 19 19 20 20 20 20 20 19 19 20 19 19 19 19 16 17 16
5 4 4 6 7 5 2 1 0 1 2 2 2 2 4 6 8 10 10 12 13 14 15 16 17 17 18 18 19 19 19 20 19 19 20 19 19 19 20 19 19 19 19
7 6 6 9 8 5 3 2 1 2 2 3 5 5 5 7 8 9 10 12 13 15 15 16 17 17 18 18 19 19 20 20 19 18 20 20 20 20 20 20 20 21 21
7 7 9 11 10 8 6 3 2 2 3 5 8 8 6 7 7 8 10 12 13 15 16 16 17 18 19 20 20 21 21 21 19 18 19 19 19 19 20 20 20 20 20
8 9 8 10 8 7 6 4 3 2 3 5 7 7 7 6 6 8 10 12 14 15 15 16 18 18 19 20 22 22 22 21 19 18 18 19 19 19 19 20 20 19 20
9 8 10 10 8 7 6 4 4 4 4 5 6 7 6 6 7 8 10 12 13 14 14 16 17 18 20 22 22 22 22 21 17 16 17 18 18 19 19 20 20 21 22
10 10 9 9 9 8 7 7 6 6 7 7 8 8 7 7 8 8 10 12 13 14 15 16 17 19 21 22 22 22 22 18 16 16 17 18 19 19 20 20 20 22 24
12 12 10 10 10 8 7 7 8 8 9 9 10 10 9 9 10 10 11 12 12 13 15 16 18 19 22 21 21 19 18 17 17 16 17 17 18 19 19 20 21 22 23
14 13 12 10 9 9 8 8 9 10 11 11 12 12 11 12 11 11 11 12 13 14 15 15 17 20 19 19 19 20 19 19 17 17 17 17 18 18 18 19 21 22 24
15 15 14 13 12 10 9 9 10 11 12 12 12 11 10 11 11 11 11 12 13 14 14 14 17 19 18 18 18 20 21 21 21 20 18 18 19 18 19 19 20 22 23
18 17 16 15 14 13 11 11 11 10 13 13 13 13 12 12 12 11 11 12 13 14 15 16 17 18 19 19 19 20 24 23 22 21 20 19 19 17 19 19 21 22 23
20 19 18 17 16 15 14 11 10 12 12 16 15 14 14 12 11 11 12 14 14 15 16 17 17 17 18 20 18 21 24 25 19 20 21 19 18 18 17 19 21 22 23
19 17 16 16 15 16 15 15 13 15 16 18 16 15 13 12 12 12 13 14 15 15 17 18 18 18 18 19 20 21 20 19 22 23 19 21 19 19 18 19 21 23 24
16 16 15 14 14 13 14 15 16 16 18 16 16 15 16 16 16 15 14 15 15 16 16 17 18 19 19 19 20 19 19 19 20 22 23 22 20 20 19 19 20 22 23
14 14 14 13 13 13 14 15 17 16 15 14 14 15 16 17 17 16 15 15 15 16 17 18 18 18 18 18 19 18 19 20 21 21 22 21 19 20 21 19 21 23 24
Wind_Direction
121 115 112 111 106 105 102 99 94 90 87 84 81 80 79 75 72 71 66 60 55 48 41 39 35 31 26 23 19 17 16 14 15 19 27 34 41 46 44 46 47 50 52
115 115 114 108 106 105 103 101 97 93 92 87 79 73 73 68 65 62 57 51 46 40 37 34 28 24 20 20 21 20 18 18 21 28 41 43 45 48 42 50 50 53 57
118 112 109 107 107 106 106 103 98 94 91 85 80 70 67 58 56 50 47 43 38 35 32 27 27 23 21 19 17 16 19 20 23 36 52 57 66 70 63 63 60 61 60
119 115 111 107 104 105 108 104 98 93 89 84 71 66 55 52 51 41 37 37 31 29 23 20 17 8 4 350 352 5 7 8 14 22 34 42 65 74 66 70 70 68 66
116 113 109 106 105 106 105 103 97 93 88 82 69 63 52 48 38 32 31 24 18 14 4 354 3 349 343 336 326 336 353 2 358 5 7 20 42 79 74 69 71 69 68
113 110 111 109 105 106 106 104 98 96 92 84 71 59 43 40 31 27 21 20 11 358 347 343 347 344 339 337 335 331 332 336 343 354 1 356 2 80 95 85 78 67 61
119 112 108 109 105 105 106 106 103 99 92 80 65 52 36 27 25 18 1 359 359 347 335 336 335 331 328 325 321 318 311 311 329 327 346 2 12 1 103 89 86 71 64
117 106 108 106 104 104 108 106 102 96 88 76 61 40 30 17 11 10 1 351 351 347 342 337 331 331 331 326 321 310 310 316 334 351 354 4 351 345 108 96 96 84 68
108 110 114 112 110 112 109 106 102 99 88 81 70 50 21 5 356 353 350 344 340 336 332 329 329 325 323 324 318 317 341 341 345 348 345 343 344 351 11 65 79 72 61
117 115 124 123 121 117 113 116 111 103 88 72 71 47 16 356 344 338 334 332 330 331 330 332 335 336 335 329 330 335 342 349 352 349 347 345 342 346 354 18 26 54 41
144 137 135 139 133 127 121 115 107 101 93 79 66 55 3 340 341 341 340 338 342 344 343 344 341 338 337 333 333 340 344 345 343 349 349 343 342 346 348 350 350 350 359
167 170 161 158 145 137 131 130 121 95 11 337 25 18 0 343 337 343 345 345 347 346 344 342 339 336 334 334 334 338 340 340 342 344 346 348 350 349 348 348 344 339 338
171 186 209 169 157 159 170 177 298 316 312 316 333 354 347 339 342 341 344 342 343 344 342 342 343 342 339 338 338 340 342 343 344 343 341 343 345 345 345 345 345 342 339
184 197 198 174 174 176 175 181 237 284 299 300 310 319 325 330 338 342 345 344 341 339 341 343 344 344 345 344 344 343 343 343 345 346 342 341 342 343 343 341 341 337 335
198 200 191 181 179 180 180 199 226 265 293 304 305 312 318 325 336 342 342 344 344 342 341 342 343 343 342 343 343 342 342 343 348 348 347 347 347 347 344 342 342 343 343
207 195 196 189 192 195 195 196 198 245 290 304 307 308 316 325 336 338 339 339 338 340 342 341 339 341 341 341 338 337 338 340 344 345 347 347 349 349 349 349 350 351 349
216 204 191 190 193 211 218 227 228 253 281 301 310 310 309 312 319 326 331 330 332 336 339 340 340 341 339 337 337 337 337 339 345 347 348 348 350 351 349 347 345 344 341
221 215 213 203 205 207 219 238 249 266 285 295 302 306 301 301 308 316 320 322 326 328 331 335 336 337 336 335 336 338 341 349 352 352 351 349 349 348 349 349 346 342 338
225 223 221 222 215 222 234 245 255 270 282 290 296 299 297 299 304 308 313 318 323 327 330 334 336 335 334 338 341 344 350 352 351 350 350 350 349 349 348 351 351 347 344
241 246 244 239 220 218 237 248 265 273 282 289 293 297 299 302 305 309 313 316 321 323 326 331 335 338 338 343 346 348 349 349 351 350 348 348 348 349 350 349 348 347 344
236 233 231 233 234 233 237 242 261 267 279 286 288 289 290 296 302 305 309 313 317 320 323 327 329 333 337 340 342 347 346 343 341 341 343 343 342 345 348 349 349 349 346
229 229 230 231 235 241 240 255 269 270 287 292 290 288 285 288 293 296 301 307 312 315 318 318 321 324 328 329 326 329 323 330 338 338 338 338 339 346 346 350 349 350 350
231 231 233 234 234 247 252 259 274 286 290 294 291 289 287 286 292 294 300 304 309 313 315 318 318 320 321 329 325 323 319 316 322 329 334 334 336 341 348 348 343 344 346
239 237 237 238 243 251 253 261 258 272 279 290 291 293 292 290 290 292 295 300 306 311 314 317 320 320 320 318 324 326 326 324 314 312 323 330 332 334 337 339 338 338 342
251 245 236 237 247 255 263 267 273 279 288 294 295 292 292 294 295 296 299 302 306 311 316 319 320 321 321 319 319 320 324 325 321 315 309 315 327 327 329 333 341 338 336
272 263 255 247 256 263 273 281 283 281 283 288 291 291 290 291 294 297 299 301 306 309 311 314 319 321 323 325 325 323 319 317 315 315 314 315 318 320 321 334 334 334 333